This is the latest recevied weather packets stored in our database for station/object K0APR. If no packets are shown the sender has not sent any weather packets the latest 10 day(s).
| Time | Temp. | Humidity | Pressure | Rain* | Wind** | Luminosity | Snow |
|---|---|---|---|---|---|---|---|
| 1788567339 | 27.22° C | 75% | 1013.3 hPa | 0 mm | - | 17 W/m² | - |
| 1788567038 | 27.22° C | 74% | 1013.3 hPa | 0 mm | - | 20 W/m² | - |
| 1788566734 | 27.78° C | 73% | 1013.3 hPa | 0 mm | - | 23 W/m² | - |
| 1788566430 | 27.78° C | 72% | 1013.3 hPa | 0 mm | - | 26 W/m² | - |
| 1788566125 | 28.33° C | 71% | 1013.3 hPa | 0 mm | - | 35 W/m² | - |
| 1788565825 | 28.33° C | 71% | 1013.3 hPa | 0 mm | - | 43 W/m² | - |
| 1788565524 | 28.89° C | 72% | 1013.7 hPa | 0 mm | - | 63 W/m² | - |
| 1788565221 | 28.89° C | 71% | 1013.3 hPa | 0 mm | - | 73 W/m² | - |
| 1788564916 | 28.89° C | 70% | 1013.3 hPa | 0 mm | - | 82 W/m² | - |
| 1788564612 | 28.89° C | 70% | 1013.7 hPa | 0 mm | - | 94 W/m² | - |
| 1788564308 | 28.89° C | 70% | 1013.3 hPa | 0 mm | - | 98 W/m² | - |
| 1788564004 | 29.44° C | 70% | 1013.3 hPa | 0 mm | - | 92 W/m² | - |
| 1788563700 | 29.44° C | 70% | 1013.3 hPa | 0 mm | - | 134 W/m² | - |
| 1788563394 | 30° C | 69% | 1013.3 hPa | 0 mm | - | 162 W/m² | - |
| 1788563093 | 30° C | 69% | 1013.3 hPa | 0 mm | - | 171 W/m² | - |
| 1788562789 | 30° C | 69% | 1013.7 hPa | 0 mm | - | 183 W/m² | - |
| 1788562487 | 30.56° C | 67% | 1013.3 hPa | 0 mm | - | 180 W/m² | - |
| 1788562186 | 30° C | 68% | 1013.7 hPa | 0 mm | - | 191 W/m² | - |
| 1788561883 | 30° C | 69% | 1013.3 hPa | 0 mm | - | 209 W/m² | - |
| 1788561582 | 30° C | 69% | 1013.3 hPa | 0 mm | - | 117 W/m² | - |
| 1788561281 | 30° C | 69% | 1013.7 hPa | 0 mm | - | 63 W/m² | - |
| 1788560977 | 30° C | 69% | 1013.7 hPa | 0 mm | - | 63 W/m² | - |
| 1788560673 | 30° C | 69% | 1013.7 hPa | 0 mm | - | 61 W/m² | - |
| 1788560372 | 30° C | 69% | 1013.3 hPa | 0 mm | - | 57 W/m² | - |
| 1788560067 | 30.56° C | 68% | 1013.3 hPa | 0 mm | - | 57 W/m² | - |
* Rain latest hour (hover to see other rain measurements)
** Current wind speed in m/s (hover to see current wind gust speed)